Time,TemperatureF,DewpointF,PressureIn,WindDirection,WindDirectionDegrees,WindSpeedMPH,WindSpeedGustMPH,Humidity,HourlyPrecipIn,Conditions,Clouds,dailyrainin,SolarRadiationWatts/m^2,SoftwareType,DateUTC
2013-02-19 00:01:00,49.0,3.0,30.02,NW,324,4.0,7.0,15,-99.99,,,-99.99,0.000000,,2013-02-19 07:01:00,
2013-02-19 00:11:00,48.0,4.0,30.02,NNW,333,6.0,9.0,16,-99.99,,,-99.99,0.000000,,2013-02-19 07:11:00,
2013-02-19 00:22:00,48.0,4.0,30.02,NNW,333,6.0,9.0,16,-99.99,,,-99.99,0.000000,,2013-02-19 07:22:00,
2013-02-19 00:32:00,46.0,6.0,30.02,NW,318,4.0,6.0,19,-99.99,,,-99.99,0.000000,,2013-02-19 07:32:00,
2013-02-19 00:42:00,42.0,15.0,30.02,West,269,5.0,8.0,32,-99.99,,,-99.99,0.000000,,2013-02-19 07:42:00,
2013-02-19 00:52:00,42.0,15.0,30.02,West,269,5.0,8.0,32,-99.99,,,-99.99,0.000000,,2013-02-19 07:52:00,
2013-02-19 01:02:00,42.0,9.0,30.02,WNW,287,4.0,7.0,25,-99.99,,,-99.99,0.000000,,2013-02-19 08:02:00,
2013-02-19 01:11:00,41.0,11.0,30.02,WNW,287,5.0,8.0,28,-99.99,,,-99.99,0.000000,,2013-02-19 08:11:00,
2013-02-19 01:21:00,41.0,11.0,30.02,WNW,287,5.0,8.0,28,-99.99,,,-99.99,0.000000,,2013-02-19 08:21:00,
2013-02-19 01:31:00,41.0,11.0,30.03,West,270,5.0,7.0,28,-99.99,,,-99.99,0.000000,,2013-02-19 08:31:00,
2013-02-19 01:42:00,41.0,9.0,30.03,WNW,284,3.0,6.0,26,-99.99,,,-99.99,0.000000,,2013-02-19 08:42:00,
2013-02-19 01:52:00,41.0,9.0,30.03,WNW,284,3.0,6.0,26,-99.99,,,-99.99,0.000000,,2013-02-19 08:52:00,
2013-02-19 02:01:00,41.0,9.0,30.03,WNW,295,3.0,6.0,26,-99.99,,,-99.99,0.000000,,2013-02-19 09:01:00,
2013-02-19 02:11:00,41.0,10.0,30.03,WNW,290,3.0,6.0,27,-99.99,,,-99.99,0.000000,,2013-02-19 09:11:00,
2013-02-19 02:22:00,41.0,10.0,30.03,WNW,290,3.0,6.0,27,-99.99,,,-99.99,0.000000,,2013-02-19 09:22:00,
2013-02-19 02:32:00,41.0,11.0,30.03,WNW,282,3.0,5.0,28,-99.99,,,-99.99,0.000000,,2013-02-19 09:32:00,
2013-02-19 02:42:00,40.0,10.0,30.02,West,273,3.0,5.0,28,-99.99,,,-99.99,0.000000,,2013-02-19 09:42:00,
2013-02-19 02:53:00,40.0,10.0,30.02,West,273,3.0,5.0,28,-99.99,,,-99.99,0.000000,,2013-02-19 09:53:00,
2013-02-19 03:01:00,42.0,9.0,30.02,WNW,282,4.0,7.0,25,-99.99,,,-99.99,0.000000,,2013-02-19 10:01:00,
2013-02-19 03:11:00,42.0,8.0,30.02,West,280,4.0,6.0,24,-99.99,,,-99.99,0.000000,,2013-02-19 10:11:00,
2013-02-19 03:21:00,42.0,8.0,30.02,West,280,4.0,6.0,24,-99.99,,,-99.99,0.000000,,2013-02-19 10:21:00,
2013-02-19 03:31:00,43.0,7.0,30.01,WNW,285,3.0,5.0,22,-99.99,,,-99.99,0.000000,,2013-02-19 10:31:00,
2013-02-19 03:42:00,42.0,7.0,30.01,West,266,2.0,4.0,23,-99.99,,,-99.99,0.000000,,2013-02-19 10:42:00,
2013-02-19 03:52:00,42.0,7.0,30.01,West,266,2.0,4.0,23,-99.99,,,-99.99,0.000000,,2013-02-19 10:52:00,
2013-02-19 04:01:00,40.0,7.0,30.01,West,277,4.0,6.0,25,-99.99,,,-99.99,0.000000,,2013-02-19 11:01:00,
2013-02-19 04:11:00,40.0,7.0,30.00,WNW,293,6.0,9.0,24,-99.99,,,-99.99,0.000000,,2013-02-19 11:11:00,
2013-02-19 04:22:00,40.0,7.0,30.00,WNW,293,6.0,9.0,24,-99.99,,,-99.99,0.000000,,2013-02-19 11:22:00,
2013-02-19 04:32:00,40.0,8.0,29.99,WNW,289,7.0,9.0,25,-99.99,,,-99.99,0.000000,,2013-02-19 11:32:00,
2013-02-19 04:42:00,41.0,9.0,29.99,West,277,6.0,9.0,26,-99.99,,,-99.99,0.000000,,2013-02-19 11:42:00,
2013-02-19 04:52:00,41.0,9.0,29.99,West,277,6.0,9.0,26,-99.99,,,-99.99,0.000000,,2013-02-19 11:52:00,
2013-02-19 05:01:00,41.0,5.0,30.00,North,353,7.0,11.0,21,-99.99,,,-99.99,0.000000,,2013-02-19 12:01:00,
2013-02-19 05:12:00,38.0,5.0,30.00,NW,305,5.0,7.0,24,-99.99,,,-99.99,0.000000,,2013-02-19 12:12:00,
2013-02-19 05:22:00,38.0,5.0,30.00,NW,305,5.0,7.0,24,-99.99,,,-99.99,0.000000,,2013-02-19 12:22:00,
2013-02-19 05:30:00,38.0,6.0,30.00,West,259,2.0,4.0,26,-99.99,,,-99.99,0.000000,,2013-02-19 12:30:00,
2013-02-19 05:32:00,37.0,5.0,30.00,WNW,285,4.0,7.0,25,-99.99,,,-99.99,0.000000,,2013-02-19 12:32:00,
2013-02-19 05:42:00,38.0,5.0,30.00,West,269,2.0,5.0,25,-99.99,,,-99.99,0.000000,,2013-02-19 12:42:00,
2013-02-19 05:52:00,38.0,5.0,30.00,West,269,2.0,5.0,25,-99.99,,,-99.99,0.000000,,2013-02-19 12:52:00,
2013-02-19 06:02:00,38.0,6.0,30.00,West,259,2.0,4.0,26,-99.99,,,-99.99,0.000000,,2013-02-19 13:02:00,
2013-02-19 06:11:00,38.0,6.0,30.00,West,259,2.0,4.0,26,-99.99,,,-99.99,0.000000,,2013-02-19 13:11:00,
2013-02-19 06:22:00,38.0,6.0,30.00,West,259,2.0,4.0,26,-99.99,,,-99.99,0.000000,,2013-02-19 13:22:00,
2013-02-19 06:42:00,37.0,6.0,30.01,West,275,4.0,5.0,27,-99.99,,,-99.99,0.000000,,2013-02-19 13:42:00,
2013-02-19 06:52:00,37.0,6.0,30.01,West,275,4.0,5.0,27,-99.99,,,-99.99,0.000000,,2013-02-19 13:52:00,
2013-02-19 07:01:00,35.0,5.0,30.00,WNW,289,4.0,6.0,28,-99.99,,,-99.99,0.000000,,2013-02-19 14:01:00,
2013-02-19 07:11:00,33.0,6.0,30.01,WNW,282,4.0,5.0,31,-99.99,,,-99.99,1.390000,,2013-02-19 14:11:00,
2013-02-19 07:21:00,33.0,6.0,30.01,WNW,282,4.0,5.0,31,-99.99,,,-99.99,1.390000,,2013-02-19 14:21:00,
2013-02-19 07:32:00,33.0,6.0,30.01,West,279,4.0,5.0,31,-99.99,,,-99.99,13.950000,,2013-02-19 14:32:00,
2013-02-19 07:42:00,36.0,6.0,30.01,NW,306,4.0,6.0,27,-99.99,,,-99.99,55.790001,,2013-02-19 14:42:00,
2013-02-19 07:52:00,36.0,6.0,30.01,NW,306,4.0,6.0,27,-99.99,,,-99.99,55.790001,,2013-02-19 14:52:00,
2013-02-19 08:01:00,38.0,7.0,30.02,WNW,297,3.0,5.0,27,-99.99,,,-99.99,115.760002,,2013-02-19 15:01:00,
2013-02-19 08:11:00,38.0,7.0,30.02,WNW,297,3.0,5.0,27,-99.99,,,-99.99,115.760002,,2013-02-19 15:11:00,
2013-02-19 08:21:00,38.0,7.0,30.02,WNW,297,3.0,5.0,27,-99.99,,,-99.99,115.760002,,2013-02-19 15:21:00,
2013-02-19 08:32:00,45.0,5.0,30.03,North,6,4.0,6.0,18,-99.99,,,-99.99,221.750000,,2013-02-19 15:32:00,
2013-02-19 08:42:00,46.0,4.0,30.03,NNE,29,4.0,6.0,17,-99.99,,,-99.99,278.239990,,2013-02-19 15:42:00,
2013-02-19 08:52:00,46.0,4.0,30.03,NNE,29,4.0,6.0,17,-99.99,,,-99.99,278.239990,,2013-02-19 15:52:00,
2013-02-19 09:02:00,46.0,5.0,30.02,NNE,20,4.0,6.0,18,-99.99,,,-99.99,334.720001,,2013-02-19 16:02:00,
2013-02-19 09:11:00,47.0,6.0,30.03,NNE,13,5.0,7.0,18,-99.99,,,-99.99,384.230011,,2013-02-19 16:11:00,
2013-02-19 09:22:00,47.0,6.0,30.03,NNE,13,5.0,7.0,18,-99.99,,,-99.99,384.230011,,2013-02-19 16:22:00,
2013-02-19 09:32:00,47.0,6.0,30.03,NNE,13,5.0,7.0,18,-99.99,,,-99.99,384.230011,,2013-02-19 16:32:00,
2013-02-19 09:41:00,49.0,5.0,30.03,NE,39,2.0,4.0,16,-99.99,,,-99.99,488.130005,,2013-02-19 16:41:00,
2013-02-19 09:52:00,49.0,5.0,30.03,NE,39,2.0,4.0,16,-99.99,,,-99.99,488.130005,,2013-02-19 16:52:00,
2013-02-19 10:01:00,51.0,5.0,30.02,ENE,68,3.0,5.0,14,-99.99,,,-99.99,542.530029,,2013-02-19 17:01:00,
2013-02-19 10:11:00,51.0,4.0,30.01,East,82,3.0,6.0,14,-99.99,,,-99.99,497.899994,,2013-02-19 17:11:00,
2013-02-19 10:21:00,51.0,4.0,30.01,East,82,3.0,6.0,14,-99.99,,,-99.99,497.899994,,2013-02-19 17:21:00,
2013-02-19 10:32:00,52.0,5.0,30.01,ENE,57,3.0,6.0,14,-99.99,,,-99.99,572.510010,,2013-02-19 17:32:00,
2013-02-19 10:42:00,54.0,6.0,30.01,NNE,24,2.0,6.0,14,-99.99,,,-99.99,501.380005,,2013-02-19 17:42:00,
2013-02-19 10:52:00,54.0,6.0,30.01,NNE,24,2.0,6.0,14,-99.99,,,-99.99,501.380005,,2013-02-19 17:52:00,
2013-02-19 11:01:00,54.0,6.0,30.00,North,6,4.0,9.0,13,-99.99,,,-99.99,571.809998,,2013-02-19 18:01:00,
2013-02-19 11:11:00,56.0,6.0,29.99,WNW,302,5.0,10.0,13,-99.99,,,-99.99,445.600006,,2013-02-19 18:11:00,
2013-02-19 11:21:00,56.0,6.0,29.99,WNW,302,5.0,10.0,13,-99.99,,,-99.99,445.600006,,2013-02-19 18:21:00,
2013-02-19 11:31:00,57.0,7.0,29.99,WNW,297,5.0,10.0,12,-99.99,,,-99.99,486.739990,,2013-02-19 18:31:00,
2013-02-19 11:42:00,60.0,7.0,29.98,NW,316,5.0,11.0,11,-99.99,,,-99.99,571.809998,,2013-02-19 18:42:00,
2013-02-19 11:52:00,60.0,7.0,29.98,NW,316,5.0,11.0,11,-99.99,,,-99.99,571.809998,,2013-02-19 18:52:00,
2013-02-19 12:01:00,61.0,17.0,29.97,WSW,256,11.0,23.0,17,-99.99,,,-99.99,389.809998,,2013-02-19 19:01:00,
2013-02-19 12:11:00,61.0,24.0,29.95,WSW,240,15.0,30.0,24,-99.99,,,-99.99,414.220001,,2013-02-19 19:11:00,
2013-02-19 12:21:00,61.0,24.0,29.95,WSW,240,15.0,30.0,24,-99.99,,,-99.99,414.220001,,2013-02-19 19:21:00,
2013-02-19 12:31:00,60.0,26.0,29.93,SW,231,15.0,31.0,26,-99.99,,,-99.99,315.190002,,2013-02-19 19:31:00,